Location: Home
(42.5358°N, 72.7383°W)
Time: 13:15:27
(UTC-05:00)

Hubble Space Telescope - Visible Passes

Search period start: 04 December 2022 00:00
Search period end: 14 December 2022 00:00
Orbit: 530 x 534 km, 28.5° (Epoch: 04 December)

Date Brightness Start Highest point End Pass type
(mag) Time Alt. Az. Time Alt. Az. Time Alt. Az.
08 Dec 3.6 06:30:32 10° S 06:31:35 11° S 06:32:38 10° SSE visible
09 Dec 3.5 06:17:36 10° SSW 06:18:48 11° S 06:20:01 10° SSE visible
10 Dec 3.4 06:04:46 10° SSW 06:06:01 11° S 06:07:15 10° SSE visible
11 Dec 3.4 05:52:03 10° SSW 05:53:13 11° S 05:54:22 10° SSE visible
12 Dec 3.4 05:39:28 10° SSW 05:40:25 11° S 05:41:22 10° S visible
13 Dec 3.4 05:27:12 10° SSW 05:27:37 10° S 05:28:01 10° S visible
